Location: Hopville
(44.8032°N, 123.1329°W)
Time: 16:23:14
(UTC+00:00)

CORIOLIS - Pass Details

Date: 24 January 2021
Orbit: 818 x 839 km, 98.7° (Epoch: 01 March)

Event Time Altitude Azimuth Distance (km) Brightness Sun altitude
Rises 14:41:25 0° 15° (NNE) 3,360 7.3 -10.4°
Reaches altitude 10° 14:43:47 10° 17° (NNE) 2,422 6.6 -10.0°
Maximum altitude 14:49:09 78° 103° (ESE) 842 4.4 -9.1°
Drops below altitude 10° 14:54:29 10° 190° (S) 2,407 6.7 -8.2°
Sets 14:56:49 0° 192° (SSW) 3,337 7.4 -7.8°
